Temperature
9 11 11 10 10 10 10 11 11 11 10 9 10 10 10 10 9 9 9 8 8 7 7 6 7 7 7 7 7 7 7 7 7 7 7 7 7 7 7 7 7 7 7 7
10 10 10 9 9 9 9 10 10 10 9 9 9 9 10 10 9 9 8 8 8 7 7 6 6 6 6 6 7 7 7 7 7 6 6 6 6 6 6 6 6 6 6 6
10 9 8 8 9 9 9 10 10 9 9 8 8 10 10 10 9 8 8 7 7 6 6 6 5 6 6 6 6 6 6 6 6 6 6 6 6 6 6 6 6 6 6 6
9 8 8 8 8 8 9 9 8 8 8 9 8 10 11 10 9 9 8 7 7 6 5 5 5 5 5 6 6 6 6 6 6 6 5 5 5 5 5 5 5 5 5 5
8 7 8 8 8 8 8 8 7 7 8 8 8 8 11 10 9 9 9 7 6 6 5 5 5 5 5 5 5 5 5 5 5 5 5 5 5 5 5 5 5 5 5 5
7 7 7 7 7 7 7 7 7 7 8 8 9 9 11 10 10 10 9 7 6 5 5 4 4 4 5 5 5 5 5 5 5 5 5 4 4 4 4 4 4 4 4 4
7 7 6 6 7 7 7 8 9 9 8 9 8 8 10 10 9 9 8 7 6 5 4 4 4 4 4 5 5 5 4 4 4 4 4 4 4 4 4 4 4 4 4 4
8 8 7 6 7 7 7 8 8 9 10 10 8 8 10 9 8 7 7 6 5 5 4 4 4 4 4 4 4 4 4 4 4 4 4 4 3 3 3 3 3 3 3 3
8 8 6 6 6 7 7 7 7 7 7 7 9 9 9 8 8 7 7 6 5 4 4 4 4 4 4 4 4 4 4 4 4 3 3 3 3 3 3 3 3 3 3 3
6 6 6 5 6 5 6 7 6 7 7 9 10 9 10 8 8 8 7 6 5 4 4 3 3 3 3 3 3 3 3 3 3 3 3 3 3 3 2 2 2 3 3 3
5 6 6 6 6 6 5 5 6 7 7 8 9 11 10 8 8 7 7 6 5 4 3 3 3 3 3 3 3 3 3 3 3 3 3 2 2 2 2 2 2 2 2 3
5 5 6 6 5 5 6 6 6 7 6 6 8 9 8 8 7 7 6 5 5 4 3 3 3 3 3 3 3 3 2 2 2 2 2 2 2 2 2 2 2 2 2 2
4 4 6 7 5 4 4 5 5 5 6 6 7 9 7 7 7 6 6 5 4 4 3 3 3 3 3 3 2 2 2 2 2 2 2 2 2 2 2 2 2 2 2 2
4 4 5 7 7 5 4 4 4 4 5 6 7 8 8 7 7 6 5 5 4 3 3 3 2 2 2 2 2 2 2 1 1 1 1 2 2 2 1 1 1 1 2 2
4 4 4 4 5 4 4 4 4 4 5 6 7 7 8 8 7 6 5 4 3 3 3 2 2 2 2 2 2 1 1 1 1 1 1 1 1 1 1 1 1 1 1 1
3 3 3 3 4 3 3 4 4 4 5 5 5 6 7 6 5 5 4 4 3 3 2 2 2 1 1 1 1 1 1 1 1 1 1 1 1 1 1 1 1 1 1 1
2 2 3 5 3 3 5 5 4 4 4 5 5 6 6 5 5 4 4 3 3 2 2 2 2 1 1 1 1 1 1 1 1 0 0 0 1 1 0 0 0 0 0 0
2 2 3 3 3 4 7 5 4 4 4 4 4 5 5 4 4 3 3 3 2 2 2 2 2 1 1 1 1 1 1 0 0 0 0 0 0 0 0 0 -0 -0 -0 -0
2 2 2 3 4 5 6 4 3 3 4 4 4 4 4 3 2 3 3 3 2 2 2 2 2 1 1 1 1 1 0 0 0 -0 -0 -0 -0 -0 -0 -0 -0 -0 -1 -1
0 1 2 2 3 5 6 4 2 3 4 4 3 3 3 2 4 5 3 3 2 2 2 1 1 1 1 1 0 0 -0 -0 -0 -0 -0 -0 -0 -0 -0 -0 -1 -1 -1 -1
0 1 1 2 3 5 5 2 2 4 6 4 3 3 2 3 3 3 3 2 2 2 1 1 1 1 0 0 0 -0 -0 -0 -0 -0 -0 -1 -0 -0 -0 -1 -1 -1 -1 -2
2 2 1 2 3 4 3 2 3 5 3 3 2 2 2 2 2 2 2 2 1 1 1 1 0 0 0 0 -0 -0 -0 -0 -1 -1 -1 -1 -1 -1 -1 -1 -1 -2 -2 -2
2 3 3 3 5 4 2 2 3 2 2 2 2 2 2 2 2 2 2 1 1 1 0 0 0 0 0 -0 -0 -0 -0 -1 -1 -1 -1 -1 -1 -1 -1 -1 -2 -2 -2 -2
1 1 1 1 3 3 2 2 2 2 2 2 2 2 2 1 1 1 1 1 1 0 0 0 0 0 0 -0 -0 -0 -1 -1 -1 -1 -1 -1 -1 -1 -1 -2 -2 -2 -3 -3
2 0 0 1 2 2 2 2 2 2 2 2 2 2 1 1 1 1 1 1 0 0 -0 -0 -0 -0 -0 -0 -1 -1 -1 -1 -1 -1 -1 -1 -1 -1 -2 -2 -2 -3 -3 -3
1 1 1 3 3 2 3 2 2 2 2 1 1 1 1 1 1 1 1 1 0 -0 -0 -0 -0 -0 -1 -1 -1 -1 -1 -1 -1 -1 -1 -2 -2 -2 -2 -2 -3 -3 -3 -3
Wind_Speed
1 3 4 5 6 5 4 7 8 7 3 5 10 13 12 9 9 9 8 7 6 7 5 4 4 4 3 3 3 4 4 3 3 3 3 3 3 3 3 3 4 5 4 4
2 5 4 3 4 5 6 8 8 6 4 5 9 13 11 8 8 8 7 7 7 7 5 4 4 3 3 3 3 4 4 4 4 4 3 3 3 3 4 4 4 5 5 4
5 1 2 3 4 6 8 9 8 8 7 6 7 9 8 6 6 6 6 6 6 6 6 5 4 4 3 3 4 3 4 4 4 3 2 2 2 3 3 4 4 4 5 5
3 2 3 5 5 6 7 6 7 7 6 5 4 7 6 6 5 5 6 5 5 5 6 5 5 4 4 4 3 4 4 4 4 4 4 4 4 4 4 4 4 4 5 4
3 3 4 5 5 6 4 3 5 6 7 7 6 7 6 4 6 6 5 4 5 5 5 5 5 5 4 3 3 4 4 3 4 4 5 5 5 4 4 4 4 4 4 4
3 2 3 3 3 4 3 2 3 4 5 7 8 8 7 5 6 6 4 3 4 4 4 4 4 3 3 3 3 3 3 3 3 4 4 5 5 5 5 5 4 4 3 3
3 4 3 2 2 3 3 2 2 3 5 6 3 7 8 4 5 5 5 4 3 3 3 3 3 3 3 3 3 3 3 3 3 3 4 4 5 5 5 5 5 4 3 3
3 4 4 4 4 3 5 4 3 5 5 5 4 8 5 3 3 4 4 3 2 2 3 3 3 3 3 3 3 3 3 3 3 3 3 3 4 4 4 5 5 5 4 4
3 3 2 3 3 4 4 5 2 3 4 6 6 6 6 5 4 3 3 2 2 2 3 3 3 3 3 3 3 3 3 3 3 3 3 4 4 4 4 5 5 4 4 4
2 4 2 1 3 3 3 3 4 4 4 6 7 7 5 5 5 3 2 2 3 3 3 3 3 3 3 3 3 3 3 3 3 3 3 3 4 4 5 5 5 5 5 4
3 3 2 3 6 6 5 5 5 4 4 5 6 5 2 5 4 4 3 3 3 3 3 3 3 3 3 3 3 3 3 3 3 3 4 4 4 4 4 4 5 5 4 4
4 3 4 5 3 3 6 7 7 5 5 5 6 6 1 3 3 3 4 4 4 3 3 3 3 3 3 3 3 3 3 3 3 3 4 4 4 4 4 4 5 5 5 4
4 3 3 3 3 4 5 6 7 5 4 6 7 7 1 2 4 5 5 5 4 3 3 2 2 3 3 3 3 3 3 3 3 3 4 4 4 4 4 5 4 5 4 4
3 5 7 8 5 3 6 8 9 8 7 9 12 13 10 8 8 8 7 6 4 3 3 3 3 3 3 3 3 3 3 3 3 3 4 4 4 4 4 4 4 4 4 4
3 5 7 11 11 9 11 13 13 16 15 13 14 16 17 13 11 9 7 6 5 5 4 4 5 4 3 3 3 3 3 3 3 3 3 4 4 4 4 4 4 4 4 4
3 4 4 7 7 8 11 14 16 17 17 19 20 20 16 11 9 9 8 6 7 7 6 6 6 5 4 4 3 3 3 3 3 4 4 3 3 3 4 4 4 4 3 3
4 3 3 6 5 6 10 11 13 11 12 12 16 14 9 9 8 8 7 6 7 7 7 6 6 5 4 4 4 4 3 3 3 4 4 3 3 4 4 3 3 3 3 3
5 4 3 4 4 7 3 1 6 10 12 13 13 12 9 9 8 8 6 6 7 7 7 6 5 5 4 4 3 3 3 3 3 3 3 4 4 4 4 3 3 3 3 3
7 6 4 3 5 9 6 3 4 6 9 10 13 12 10 7 7 7 6 6 8 7 6 5 5 4 4 4 3 2 3 3 3 4 4 4 4 4 3 3 3 3 3 3
5 5 5 5 5 6 3 1 3 3 6 5 8 9 7 4 5 6 4 5 5 4 4 4 3 3 3 3 2 2 3 3 4 4 4 4 4 4 4 3 3 3 2 2
5 6 9 9 8 8 4 2 5 4 5 2 5 6 5 6 7 5 4 4 4 4 3 3 3 3 3 3 2 3 4 5 5 4 4 4 4 4 4 3 3 3 2 2
9 7 8 7 8 9 4 6 6 6 4 4 5 6 6 6 6 6 5 4 4 4 3 3 3 3 3 3 3 4 5 5 4 4 3 3 4 3 2 3 2 3 2 2
9 8 6 9 9 3 6 7 6 4 6 7 6 7 6 6 6 6 5 5 4 4 4 3 3 3 3 3 3 4 5 4 3 3 3 3 3 3 3 3 3 2 2 2
6 5 6 7 10 9 9 9 8 8 8 8 7 6 6 7 7 6 5 5 4 4 4 3 3 3 4 3 4 4 4 3 3 3 3 2 2 2 2 2 2 3 3 2
6 7 7 9 10 9 9 10 10 8 7 6 6 6 6 6 7 7 6 5 5 4 4 3 4 4 4 4 4 3 3 3 3 3 2 2 2 2 2 2 2 3 3 3
7 8 8 9 8 7 8 6 7 7 7 7 6 7 6 6 7 6 6 5 5 4 4 3 4 4 4 4 4 3 3 3 3 3 2 2 2 1 1 1 1 2 3 3
Wind_Direction
135 200 217 223 229 258 259 258 267 272 273 263 257 265 273 269 256 255 254 251 250 254 263 267 258 249 250 250 248 242 253 246 234 235 238 243 250 254 254 251 249 249 250 247
195 231 243 244 232 235 247 261 270 277 273 267 271 271 270 260 248 247 249 253 257 260 261 261 262 251 248 249 251 252 259 246 234 237 240 247 254 259 261 258 257 253 251 246
219 253 216 218 227 240 246 251 267 277 295 258 279 269 243 242 235 242 249 256 258 257 258 257 255 256 257 258 256 258 265 251 236 236 235 237 249 255 253 255 256 256 251 247
230 225 220 228 234 238 256 252 259 265 268 264 260 275 247 232 231 237 249 258 265 261 256 255 255 259 262 270 269 263 269 250 234 225 224 227 241 257 264 263 261 261 252 249
225 218 224 237 243 232 262 280 253 253 252 262 238 252 261 214 229 240 248 259 267 264 255 252 252 256 261 271 275 269 272 253 239 232 229 232 244 256 265 263 262 265 265 260
246 242 248 252 255 224 242 250 239 234 241 250 236 236 262 224 227 237 243 260 270 264 258 256 259 262 270 281 285 286 281 261 248 239 236 237 244 254 262 262 262 263 265 263
244 219 211 222 218 193 214 237 258 240 231 246 200 235 251 244 235 239 251 270 281 265 256 257 270 276 282 291 294 294 287 269 257 244 242 245 249 254 255 258 260 259 260 260
238 237 198 203 214 215 208 221 239 266 270 275 226 239 246 235 253 254 250 255 274 269 255 255 263 270 276 281 286 288 288 270 262 251 250 252 254 255 258 262 262 257 256 260
231 244 163 214 233 216 194 209 245 267 283 271 252 251 262 224 238 246 247 260 284 282 274 272 266 270 276 277 277 279 279 268 265 258 254 253 256 258 262 265 263 259 261 264
228 254 237 218 200 213 242 180 185 217 258 266 264 254 240 210 227 238 272 290 292 286 276 279 281 277 278 280 278 281 272 267 264 261 258 258 257 259 261 260 261 264 267 267
213 229 229 202 211 209 186 194 211 216 248 260 273 267 209 208 213 223 251 265 274 278 279 279 280 280 277 280 281 280 278 279 275 268 265 265 263 263 263 263 265 267 267 267
198 224 246 238 228 246 223 217 205 226 235 239 266 275 144 212 214 229 265 280 275 279 281 278 278 281 284 284 282 273 275 277 277 272 269 267 266 263 263 267 269 268 265 263
176 198 253 238 205 196 222 223 223 232 245 241 247 263 153 242 274 268 276 287 279 281 291 292 285 284 287 288 289 279 273 272 272 269 266 266 265 266 268 271 270 267 264 265
189 217 230 250 278 221 236 230 220 217 235 247 247 265 275 275 284 286 285 285 278 278 283 290 292 289 283 285 293 290 284 276 273 269 264 262 265 268 271 272 272 272 269 265
204 242 246 263 272 263 255 249 233 228 236 247 262 268 276 280 281 282 279 276 277 284 286 288 287 280 272 277 292 295 291 285 275 267 270 273 278 281 280 277 274 272 270 267
209 241 259 267 262 263 264 256 241 239 241 247 263 272 276 281 280 277 275 272 273 281 282 285 283 277 269 267 280 291 294 286 279 276 277 280 276 279 279 278 276 273 271 270
199 206 242 265 289 285 264 243 224 226 227 232 248 261 277 278 274 275 274 264 266 277 283 280 277 271 267 266 269 275 279 281 274 276 282 283 271 264 268 269 266 267 266 265
196 197 232 274 291 251 255 159 216 233 243 235 247 264 268 268 280 280 270 261 269 275 277 275 274 273 272 270 271 274 280 278 274 276 280 278 267 258 258 256 259 265 267 265
209 199 219 237 260 273 276 230 207 228 261 237 242 259 269 284 293 283 262 261 265 265 269 271 268 265 264 263 261 262 272 275 274 276 276 272 262 254 251 249 252 258 259 262
196 207 220 223 244 253 267 151 172 200 264 237 233 252 263 263 275 290 292 280 275 276 275 274 268 261 258 260 248 251 262 266 272 277 277 275 265 252 245 245 248 254 253 256
180 200 218 228 241 263 269 168 163 218 282 301 238 243 238 238 260 293 296 287 283 283 280 271 259 252 255 248 240 252 261 265 275 281 282 283 273 257 246 240 242 242 240 241
190 193 205 209 226 250 179 157 202 257 312 285 265 252 246 257 273 277 278 280 283 284 280 274 262 263 261 241 235 251 263 272 280 279 278 280 275 259 242 227 227 229 225 227
209 208 207 208 226 269 181 213 247 278 275 274 265 265 253 262 269 267 267 269 269 271 271 269 263 267 268 251 242 252 268 277 278 273 272 275 274 250 226 217 215 214 215 224
223 214 228 247 256 261 253 254 264 269 270 274 272 263 253 262 263 258 260 266 269 269 265 264 260 261 264 260 255 258 267 272 265 268 272 271 269 256 220 217 213 212 213 219
222 191 223 248 266 277 259 252 260 269 276 277 275 265 255 256 259 253 256 261 262 264 262 254 252 258 262 262 262 267 269 263 260 260 263 264 261 260 232 220 224 225 226 231
212 207 217 241 245 245 268 270 260 258 265 271 273 275 265 255 256 254 256 258 257 256 253 254 257 262 263 261 267 272 265 253 248 247 252 255 256 255 247 240 252 242 245 248
Height
1506 1505 1503 1503 1504 1503 1502 1501 1498 1498 1501 1502 1496 1492 1491 1492 1492 1491 1490 1490 1490 1489 1489 1489 1489 1488 1488 1488 1488 1488 1487 1487 1487 1486 1486 1485 1485 1485 1484 1483 1483 1482 1481 1480
1504 1503 1504 1505 1506 1505 1504 1501 1498 1498 1501 1500 1495 1490 1487 1487 1487 1487 1487 1487 1486 1487 1486 1486 1485 1485 1485 1485 1485 1484 1484 1484 1483 1483 1483 1482 1482 1481 1481 1480 1479 1478 1477 1476
1501 1504 1505 1505 1504 1504 1501 1500 1498 1499 1499 1499 1497 1483 1481 1481 1483 1484 1484 1483 1483 1483 1483 1482 1482 1481 1481 1481 1481 1481 1481 1480 1480 1480 1479 1479 1478 1478 1477 1476 1475 1474 1474 1473
1503 1505 1505 1503 1502 1502 1497 1499 1501 1500 1498 1490 1495 1480 1471 1475 1478 1479 1480 1480 1480 1480 1479 1479 1479 1478 1478 1478 1478 1478 1477 1477 1476 1476 1476 1475 1475 1474 1473 1472 1471 1470 1470 1469
1501 1504 1503 1501 1501 1502 1498 1500 1500 1499 1496 1493 1490 1488 1466 1473 1473 1473 1475 1476 1477 1476 1476 1476 1475 1475 1475 1475 1475 1475 1474 1474 1473 1473 1472 1472 1471 1471 1470 1469 1468 1467 1466 1465
1503 1504 1504 1502 1502 1502 1501 1500 1499 1498 1495 1490 1482 1482 1464 1465 1467 1468 1471 1473 1473 1474 1473 1473 1473 1473 1472 1472 1472 1471 1471 1470 1470 1469 1469 1468 1468 1467 1466 1466 1465 1463 1462 1462
1499 1501 1503 1503 1500 1501 1499 1496 1491 1488 1484 1475 1483 1480 1465 1463 1466 1467 1468 1470 1471 1471 1471 1470 1470 1469 1469 1468 1468 1468 1467 1467 1466 1466 1465 1465 1465 1464 1463 1462 1461 1460 1459 1459
1495 1493 1498 1500 1498 1497 1497 1494 1492 1485 1474 1468 1479 1472 1461 1465 1466 1467 1467 1468 1468 1468 1468 1467 1467 1466 1466 1466 1465 1465 1464 1464 1463 1463 1462 1462 1461 1461 1460 1459 1458 1457 1457 1456
1494 1492 1498 1499 1499 1498 1495 1494 1495 1493 1491 1484 1466 1464 1462 1462 1463 1464 1465 1465 1466 1466 1465 1465 1464 1464 1463 1463 1462 1462 1461 1461 1460 1460 1459 1459 1458 1457 1457 1456 1455 1454 1454 1453
1498 1497 1496 1498 1499 1499 1497 1494 1496 1493 1485 1471 1459 1458 1454 1457 1458 1460 1462 1462 1463 1463 1463 1462 1462 1461 1461 1460 1460 1459 1459 1458 1457 1457 1456 1455 1455 1454 1454 1453 1452 1451 1450 1450
1499 1498 1495 1496 1493 1490 1496 1496 1492 1488 1486 1476 1461 1451 1451 1454 1456 1458 1459 1460 1461 1461 1460 1459 1459 1459 1459 1458 1457 1456 1456 1455 1454 1453 1453 1452 1452 1451 1450 1449 1448 1447 1447 1446
1498 1496 1492 1490 1492 1493 1491 1489 1489 1486 1484 1482 1470 1457 1454 1455 1456 1457 1458 1459 1459 1459 1458 1457 1457 1456 1456 1455 1454 1453 1453 1452 1451 1450 1449 1449 1448 1447 1447 1446 1445 1444 1443 1443
1497 1497 1490 1482 1490 1494 1492 1490 1489 1487 1484 1478 1471 1456 1455 1455 1455 1456 1456 1456 1456 1456 1455 1455 1454 1453 1452 1451 1451 1450 1449 1449 1448 1447 1446 1445 1444 1444 1443 1442 1441 1441 1440 1439
1495 1494 1489 1477 1472 1481 1485 1486 1487 1487 1480 1472 1464 1453 1452 1453 1453 1453 1454 1454 1454 1453 1452 1452 1451 1450 1449 1449 1448 1447 1446 1445 1444 1444 1443 1442 1441 1440 1440 1439 1438 1437 1436 1436
1493 1490 1488 1484 1482 1482 1480 1479 1480 1480 1473 1469 1456 1455 1449 1450 1451 1451 1451 1451 1451 1450 1450 1449 1448 1447 1446 1445 1444 1444 1443 1442 1441 1440 1439 1438 1437 1437 1436 1435 1434 1433 1433 1432
1492 1490 1488 1483 1481 1481 1478 1472 1472 1472 1470 1465 1460 1455 1450 1450 1450 1449 1449 1448 1448 1447 1446 1445 1444 1443 1442 1441 1441 1440 1440 1439 1438 1436 1435 1434 1434 1433 1432 1431 1431 1430 1429 1429
1489 1490 1486 1475 1479 1479 1466 1460 1463 1463 1460 1460 1456 1449 1449 1449 1448 1446 1445 1445 1445 1444 1443 1441 1440 1440 1439 1438 1438 1437 1436 1436 1435 1434 1432 1431 1431 1430 1429 1428 1427 1427 1426 1425
1488 1488 1486 1480 1479 1469 1452 1456 1456 1456 1453 1453 1451 1448 1448 1447 1445 1444 1442 1441 1441 1440 1439 1438 1437 1436 1436 1435 1435 1434 1433 1432 1431 1430 1429 1428 1427 1426 1426 1425 1425 1424 1423 1422
1485 1486 1483 1480 1471 1457 1451 1454 1455 1455 1449 1447 1448 1446 1446 1445 1444 1440 1440 1439 1438 1437 1436 1435 1434 1433 1432 1432 1431 1431 1430 1429 1428 1427 1426 1425 1424 1423 1423 1422 1422 1421 1421 1420
1484 1484 1482 1478 1470 1457 1445 1452 1453 1455 1446 1442 1443 1443 1443 1444 1441 1436 1436 1436 1435 1434 1434 1432 1431 1430 1429 1429 1428 1428 1427 1426 1425 1424 1423 1422 1421 1421 1420 1419 1419 1418 1418 1417
1480 1480 1477 1473 1466 1451 1448 1451 1453 1451 1440 1440 1439 1439 1440 1440 1438 1436 1434 1433 1433 1432 1431 1429 1428 1427 1426 1426 1426 1425 1424 1423 1422 1421 1420 1419 1418 1418 1417 1416 1416 1416 1415 1415
1468 1469 1470 1467 1463 1451 1446 1449 1448 1441 1439 1438 1437 1437 1437 1435 1434 1433 1432 1431 1430 1429 1427 1426 1425 1424 1424 1423 1423 1422 1421 1420 1419 1418 1417 1416 1415 1415 1414 1413 1413 1413 1413 1412
1460 1457 1454 1454 1446 1441 1442 1441 1440 1439 1438 1436 1435 1434 1434 1432 1431 1430 1429 1427 1426 1426 1424 1423 1422 1421 1421 1420 1420 1419 1418 1417 1416 1415 1414 1413 1412 1411 1411 1410 1410 1410 1410 1410
1454 1455 1453 1449 1440 1439 1439 1438 1437 1436 1434 1433 1432 1432 1431 1429 1428 1427 1426 1424 1423 1422 1421 1420 1419 1418 1417 1417 1417 1416 1415 1414 1413 1412 1411 1410 1409 1408 1408 1408 1407 1407 1407 1407
1445 1449 1448 1443 1437 1436 1433 1432 1432 1432 1431 1430 1429 1428 1427 1426 1425 1424 1422 1421 1420 1419 1418 1417 1416 1415 1415 1414 1413 1413 1412 1411 1410 1409 1408 1407 1407 1406 1405 1405 1405 1405 1404 1405
1439 1440 1439 1432 1431 1432 1429 1428 1428 1427 1427 1426 1425 1424 1423 1423 1421 1420 1419 1418 1417 1416 1415 1414 1413 1413 1412 1411 1411 1410 1409 1408 1407 1406 1405 1405 1404 1403 1403 1402 1402 1402 1402 1402